HOTSPR-3 Weather Reports


time (UTC)temp
F
wind
direction
speed
knots
gust
knots
rain 1hr
in
rain 24hr
in
rain mn
in
humidity
%
barometer
mb
20260505092423 66 170 4.3 7.8 0.00 0.00 0.00 79 1003.8
20260505091422 67 172 4.3 7.8 0.00 0.00 0.00 78 1003.8
20260505085922 67 180 4.3 6.1 0.00 0.00 0.00 77 1004.1
20260505085422 67 184 4.3 6.1 0.00 0.00 0.00 77 1004.1
20260505084921 67 182 3.5 7.0 0.00 0.00 0.00 77 1004.2
20260505084421 67 185 3.5 7.0 0.00 0.00 0.00 76 1004.2
20260505083921 67 180 2.6 6.1 0.00 0.00 0.00 76 1004.2
20260505083421 67 180 3.5 7.0 0.00 0.00 0.00 75 1004.3
20260505082921 67 183 1.7 7.8 0.00 0.00 0.00 75 1004.5
20260505082421 67 212 3.5 5.2 0.00 0.00 0.00 75 1004.5
20260505081920 67 184 4.3 6.1 0.00 0.00 0.00 74 1004.6
20260505081420 67 186 3.5 4.3 0.00 0.00 0.00 73 1004.7
20260505080920 67 182 2.6 5.2 0.00 0.00 0.00 73 1004.7
20260505080420 67 163 3.5 6.1 0.00 0.00 0.00 73 1004.8
20260505075420 67 183 2.6 5.2 0.00 0.00 0.00 72 1004.7
20260505074919 67 184 2.6 4.3 0.00 0.00 0.00 71 1004.8
20260505073919 67 184 2.6 6.1 0.00 0.00 0.00 70 1004.7
20260505073419 67 195 4.3 7.0 0.00 0.00 0.00 70 1004.6
20260505072919 67 184 3.5 7.8 0.00 0.00 0.00 70 1004.6
20260505072418 67 187 3.5 7.8 0.00 0.00 0.00 69 1004.8
20260505071418 67 180 2.6 7.8 0.00 0.00 0.00 69 1004.9
20260505070918 67 163 5.2 6.1 0.00 0.00 0.00 68 1005.1
20260505070418 67 183 5.2 7.8 0.00 0.00 0.00 67 1005.1
20260505065917 67 180 4.3 9.6 0.00 0.00 0.00 67 1005.3
20260505065417 67 188 3.5 7.8 0.00 0.00 0.00 67 1005.3
20260505064917 67 189 2.6 4.3 0.00 0.00 0.00 66 1005.2
20260505064417 67 177 3.5 4.3 0.00 0.00 0.00 66 1005.3
20260505063917 67 318 3.5 5.2 0.00 0.00 0.00 65 1005.4
20260505063417 67 182 3.5 6.1 0.00 0.00 0.00 65 1005.5
20260505062916 68 177 3.5 6.1 0.00 0.00 0.00 65 1005.7
20260505062416 68 180 3.5 7.8 0.00 0.00 0.00 64 1005.8
20260505061916 68 180 2.6 5.2 0.00 0.00 0.00 64 1005.6
20260505061416 68 180 4.3 7.0 0.00 0.00 0.00 64 1005.6
20260505060916 68 212 6.1 7.0 0.00 0.00 0.00 63 1005.9
20260505060415 68 185 3.5 7.0 0.00 0.00 0.00 63 1005.8
20260505055915 68 189 3.5 4.3 0.00 0.00 0.00 63 1005.8
20260505055415 68 180 2.6 6.1 0.00 0.00 0.00 62 1006.0
20260505054915 68 186 5.2 7.8 0.00 0.00 0.00 62 1005.9
20260505054415 68 170 3.5 7.0 0.00 0.00 0.00 61 1006.0
20260505053915 68 185 3.5 5.2 0.00 0.00 0.00 61 1006.1
20260505053414 68 180 3.5 7.0 0.00 0.00 0.00 61 1006.2
20260505052914 68 185 3.5 8.7 0.00 0.00 0.00 60 1006.2
20260505052414 68 183 4.3 6.1 0.00 0.00 0.00 60 1006.2
20260505051914 68 192 4.3 6.1 0.00 0.00 0.00 60 1006.4
20260505051414 68 189 4.3 7.8 0.00 0.00 0.00 59 1006.2
20260505050914 68 182 3.5 7.0 0.00 0.00 0.00 59 1006.2
20260505041412 69 185 2.6 8.7 0.00 0.00 0.00 56 1006.6
20260505040911 69 187 4.3 5.2 0.00 0.00 0.00 56 1006.8
20260505040411 69 327 4.3 6.1 0.00 0.00 0.00 56 1006.8
20260505035911 69 180 2.6 5.2 0.00 0.00 0.00 56 1006.8
20260505035411 69 183 3.5 7.0 0.00 0.00 0.00 56 1006.8
20260505034910 69 176 3.5 7.0 0.00 0.00 0.00 56 1006.9
20260505034410 69 182 3.5 6.1 0.00 0.00 0.00 56 1006.8
20260505033910 69 182 2.6 5.2 0.00 0.00 0.00 56 1006.9
20260505033410 69 180 4.3 5.2 0.00 0.00 0.00 56 1006.8
20260505032909 69 163 2.6 3.5 0.00 0.00 0.00 56 1007.1
20260505032410 69 205 5.2 5.2 0.00 0.00 0.00 55 1007.0
20260505031409 70 182 3.5 5.2 0.00 0.00 0.00 56 1007.2
20260505030909 70 180 2.6 4.3 0.00 0.00 0.00 56 1007.1
20260505030409 70 182 2.6 5.2 0.00 0.00 0.00 56 1007.1
20260505025409 70 186 3.5 5.2 0.00 0.00 0.00 55 1006.9
20260505024908 70 185 4.3 6.1 0.00 0.00 0.00 55 1006.6
20260505023908 70 194 2.6 4.3 0.00 0.00 0.00 54 1006.6
20260505023408 70 176 4.3 7.0 0.00 0.00 0.00 54 1006.5
20260505022908 70 189 4.3 5.2 0.00 0.00 0.00 54 1006.5
20260505021907 70 175 5.2 6.1 0.00 0.00 0.00 54 1006.1
20260505021407 70 190 3.5 5.2 0.00 0.00 0.00 54 1006.1
20260505020906 70 186 4.3 7.0 0.00 0.00 0.00 54 1006.2
20260505020407 71 180 3.5 5.2 0.00 0.00 0.00 53 1006.2
20260505015406 71 182 3.5 5.2 0.00 0.00 0.00 53 1006.3
20260505013406 71 180 2.6 5.2 0.00 0.00 0.00 52 1006.2
20260505012905 72 180 3.5 7.0 0.00 0.00 0.00 52 1006.2
20260505012405 72 330 2.6 6.1 0.00 0.00 0.00 51 1006.2
20260505011405 72 192 4.3 7.0 0.00 0.00 0.00 51 1005.9
20260505010405 72 180 3.5 3.5 0.00 0.00 0.00 50 1005.9
20260505005404 73 180 5.2 5.2 0.00 0.00 0.00 49 1005.9
20260505004404 73 337 4.3 6.1 0.00 0.00 0.00 49 1005.9
20260505003903 73 208 2.6 4.3 0.00 0.00 0.00 49 1006.0
20260505003404 74 326 3.5 5.2 0.00 0.00 0.00 49 1005.9
20260505002903 74 183 2.6 4.3 0.00 0.00 0.00 49 1006.0
20260505002403 74 180 1.7 3.5 0.00 0.00 0.00 48 1006.2
20260505001403 74 184 0.9 3.5 0.00 0.00 0.00 47 1006.1
20260505000402 75 180 2.6 4.3 0.00 0.00 0.00 47 1006.1
20260504235402 75 180 1.7 2.6 0.00 0.00 0.00 46 1006.3
20260504234902 75 180 2.6 4.3 0.00 0.00 0.00 46 1006.2
20260504233401 76 194 3.5 4.3 0.00 0.00 0.00 45 1006.5
20260504232401 76 182 2.6 3.5 0.00 0.00 0.00 45 1006.6
20260504231401 76 180 1.7 4.3 0.00 0.00 0.00 45 1006.8
20260504230900 76 184 2.6 5.2 0.00 0.00 0.00 44 1006.9
20260504230400 76 337 3.5 4.3 0.00 0.00 0.00 44 1006.9
20260504225900 76 180 1.7 4.3 0.00 0.00 0.00 44 1007.0
20260504224856 77 183 2.6 6.1 0.00 0.00 0.00 44 1007.1
20260504224356 77 337 5.2 5.2 0.00 0.00 0.00 43 1007.1
20260504223855 77 182 2.6 7.0 0.00 0.00 0.00 42 1007.0
20260504223355 78 322 4.3 7.0 0.00 0.00 0.00 43 1007.0
20260504222855 78 161 7.0 7.0 0.00 0.00 0.00 43 1007.0
20260504222355 78 191 3.5 5.2 0.00 0.00 0.00 42 1007.2
20260504221855 78 180 4.3 7.8 0.00 0.00 0.00 42 1007.4
20260504221354 78 308 1.7 5.2 0.00 0.00 0.00 42 1007.2
20260504220854 79 177 4.3 8.7 0.00 0.00 0.00 42 1007.1
20260504220354 79 182 2.6 5.2 0.00 0.00 0.00 42 1007.3
20260504215854 79 180 3.5 8.7 0.00 0.00 0.00 42 1007.4
20260504215354 79 186 2.6 6.1 0.00 0.00 0.00 41 1007.3
20260504214854 79 324 4.3 7.8 0.00 0.00 0.00 42 1007.6
20260504214353 79 180 2.6 9.6 0.00 0.00 0.00 41 1007.7
20260504213853 79 186 3.5 7.0 0.00 0.00 0.00 41 1007.6
20260504213353 79 196 2.6 7.8 0.00 0.00 0.00 42 1007.7
20260504212853 79 168 3.5 5.2 0.00 0.00 0.00 41 1007.6
20260504212353 79 323 2.6 6.1 0.00 0.00 0.00 41 1007.7
20260504211852 80 180 2.6 7.0 0.00 0.00 0.00 40 1007.8
20260504211352 80 180 3.5 6.1 0.00 0.00 0.00 40 1007.8
20260504210852 81 174 6.1 7.0 0.00 0.00 0.00 40 1008.0
20260504210352 81 329 6.1 6.1 0.00 0.00 0.00 40 1008.0
20260504205852 81 337 2.6 6.1 0.00 0.00 0.00 40 1008.1
20260504205352 81 183 2.6 6.1 0.00 0.00 0.00 39 1008.1
20260504204851 81 326 4.3 7.0 0.00 0.00 0.00 39 1008.1
20260504204351 81 170 3.5 8.7 0.00 0.00 0.00 39 1008.4
20260504203851 81 327 7.8 8.7 0.00 0.00 0.00 39 1008.4
20260504203351 81 301 2.6 7.8 0.00 0.00 0.00 39 1008.5
20260504202851 81 180 2.6 7.0 0.00 0.00 0.00 39 1008.2
20260504202350 81 182 2.6 6.1 0.00 0.00 0.00 39 1008.5
20260504201850 82 326 4.3 7.8 0.00 0.00 0.00 39 1008.7
20260504201350 82 185 6.1 7.0 0.00 0.00 0.00 39 1008.7
20260504200850 81 180 3.5 10.4 0.00 0.00 0.00 39 1008.8
20260504200350 81 312 3.5 13.0 0.00 0.00 0.00 39 1008.9
20260504195850 81 326 3.5 10.4 0.00 0.00 0.00 39 1009.0
20260504194349 82 337 1.7 6.1 0.00 0.00 0.00 39 1009.2
20260504193849 82 173 3.5 7.0 0.00 0.00 0.00 38 1009.1
20260504193349 82 210 4.3 9.6 0.00 0.00 0.00 39 1009.2
20260504192848 82 326 7.8 7.8 0.00 0.00 0.00 38 1009.4
20260504192348 82 327 3.5 7.0 0.00 0.00 0.00 39 1009.4
20260504191848 82 3 1.7 7.8 0.00 0.00 0.00 39 1009.7
20260504191348 81 180 4.3 8.7 0.00 0.00 0.00 39 1009.5
20260504190848 81 157 2.6 9.6 0.00 0.00 0.00 39 1009.5
20260504190348 81 184 4.3 7.8 0.00 0.00 0.00 39 1009.8
20260504185847 81 180 2.6 9.6 0.00 0.00 0.00 39 1009.8
20260504185347 81 183 5.2 10.4 0.00 0.00 0.00 39 1009.8
20260504184847 81 212 5.2 7.8 0.00 0.00 0.00 39 1009.9
20260504184347 81 180 8.7 10.4 0.00 0.00 0.00 39 1010.1
20260504183847 81 176 4.3 9.6 0.00 0.00 0.00 39 1009.9
20260504183346 81 183 2.6 7.8 0.00 0.00 0.00 39 1010.1
20260504182846 80 180 7.0 9.6 0.00 0.00 0.00 40 1010.3
20260504182346 80 180 7.0 9.6 0.00 0.00 0.00 40 1010.3
20260504181846 80 199 7.8 8.7 0.00 0.00 0.00 41 1010.4
20260504180345 79 345 5.2 8.7 0.00 0.00 0.00 42 1010.4
20260504175845 79 348 4.3 8.7 0.00 0.00 0.00 42 1010.2
20260504175345 78 321 4.3 6.1 0.00 0.00 0.00 43 1010.6
20260504174845 78 157 5.2 8.7 0.00 0.00 0.00 43 1010.4
20260504174345 78 162 6.1 7.8 0.00 0.00 0.00 43 1010.5
20260504173844 78 315 7.8 8.7 0.00 0.00 0.00 43 1010.7
20260504173344 77 312 3.5 9.6 0.00 0.00 0.00 44 1010.6
20260504172844 77 324 3.5 8.7 0.00 0.00 0.00 44 1010.7
20260504172344 77 175 3.5 7.0 0.00 0.00 0.00 44 1010.7
20260504171844 77 173 5.2 9.6 0.00 0.00 0.00 44 1010.7
20260504171344 77 180 7.8 13.9 0.00 0.00 0.00 45 1010.9
20260504170843 76 183 3.5 9.6 0.00 0.00 0.00 45 1010.9
20260504170343 76 318 4.3 8.7 0.00 0.00 0.00 46 1011.0
20260504160337 75 327 4.3 6.1 0.00 0.00 0.00 49 1011.6
20260504150835 72 142 3.5 7.0 0.00 0.00 0.00 53 1011.4
20260504150335 72 326 2.6 11.3 0.00 0.00 0.00 54 1011.6
20260504141333 68 311 3.5 11.3 0.00 0.00 0.00 58 1011.7
20260504140833 68 327 3.5 7.8 0.00 0.00 0.00 58 1011.5
20260504110322 63 184 4.3 10.4 0.00 0.00 0.00 58 1010.8
20260504100320 64 227 6.1 8.7 0.00 0.00 0.00 57 1011.0